Date String (YYYY-MM-DD hh:mm:ss) UTC,Instrument flags,Ambient pressure (hPa),Sample flow (lpm),Bypass flow (lpm),Sample temperature (°C),Ambient temperature (°C),ASC tube jacket temperature (°C),LED temperature (°C),Box temperature (°C),Sample RH (%),Span deviation,Mass concentration (μg/m³),Mass concentration (μg/m³),Mass concentration (μg/m³)
DateTimeUTC,F1_M11,P_M11,Q1_M11,Q2_M11,T1_M11,T2_M11,T3_M11,T4_M11,T5_M11,U1_M11,ZSPAN_M11,X0_M11,X2_M11,X1_M11
2023-02-23 14:00:00,,0820.6,4.95,0.00,22.3,22.1,00.0,31.0,24.0,03.0,0000.0,0006.67,0003.72,0003.48
2023-02-23 14:01:00,,0820.6,4.98,0.00,22.4,23.0,00.0,31.0,24.2,03.0,0000.0,0006.69,0003.74,0003.50
2023-02-23 14:02:00,,0820.6,4.95,0.00,22.5,22.9,00.0,31.1,24.2,03.0,0000.0,0006.65,0003.73,0003.52
2023-02-23 14:03:00,,0820.6,5.02,0.00,22.4,22.2,00.0,31.1,24.1,03.1,0000.0,0006.73,0003.76,0003.55
2023-02-23 14:04:00,,0820.6,4.98,0.00,22.4,21.5,00.0,31.1,23.9,03.1,0000.0,0006.80,0003.79,0003.58
2023-02-23 14:05:00,,0820.6,5.00,0.00,22.3,21.0,00.0,31.1,23.7,03.1,0000.0,0006.73,0003.79,0003.61
2023-02-23 14:06:00,,0820.6,5.02,0.00,22.2,20.5,00.0,31.1,23.6,03.1,0000.0,0006.73,0003.80,0003.62
2023-02-23 14:07:00,,0820.6,5.01,0.00,22.2,20.5,00.0,31.0,23.5,03.1,0000.0,0006.13,0003.80,0003.64
2023-02-23 14:08:00,,0820.6,5.01,0.00,22.2,21.5,00.0,31.0,23.8,03.2,0000.0,0005.55,0003.83,0003.65
2023-02-23 14:09:00,,0820.6,4.98,0.00,22.3,22.5,00.0,31.0,24.1,03.2,0000.0,0005.58,0003.85,0003.66
2023-02-23 14:10:00,,0820.6,4.93,0.00,22.4,23.1,00.0,31.1,24.3,03.2,0000.0,0005.65,0003.86,0003.67
2023-02-23 14:11:00,,0820.7,5.02,0.00,22.5,22.6,00.0,31.1,24.2,03.2,0000.0,0005.72,0003.89,0003.69
2023-02-23 14:12:00,,0820.7,4.99,0.00,22.4,21.9,00.0,31.1,24.0,03.2,0000.0,0005.74,0003.91,0003.69
2023-02-23 14:13:00,,0820.7,5.02,0.00,22.4,21.3,00.0,31.1,23.9,03.3,0000.0,0005.83,0003.93,0003.70
2023-02-23 14:14:00,,0820.9,4.99,0.00,22.3,20.9,00.0,31.1,23.8,03.3,0000.0,0005.85,0003.94,0003.69
2023-02-23 14:15:00,,0820.9,5.00,0.00,22.2,20.8,00.0,31.1,23.7,03.3,0000.0,0006.01,0003.93,0003.68
2023-02-23 14:16:00,,0820.9,5.00,0.00,22.3,21.9,00.0,31.0,24.0,03.2,0000.0,0006.17,0003.96,0003.69
2023-02-23 14:17:00,,0820.9,5.03,0.00,22.4,22.9,00.0,31.1,24.2,03.2,0000.0,0006.24,0003.97,0003.69
2023-02-23 14:18:00,,0820.9,4.95,0.00,22.5,23.4,00.0,31.1,24.4,03.2,0000.0,0006.33,0003.99,0003.70
2023-02-23 14:19:00,,0820.9,4.98,0.00,22.5,22.7,00.0,31.1,24.3,03.2,0000.0,0006.91,0003.96,0003.70
2023-02-23 14:20:00,,0820.9,5.00,0.00,22.5,22.0,00.0,31.1,24.1,03.2,0000.0,0007.38,0003.96,0003.70
2023-02-23 14:21:00,,0820.9,4.98,0.00,22.4,21.4,00.0,31.1,23.9,03.3,0000.0,0007.35,0003.94,0003.70
2023-02-23 14:22:00,,0820.9,5.00,0.00,22.4,20.8,00.0,31.1,23.8,03.3,0000.0,0007.30,0003.93,0003.69
2023-02-23 14:23:00,,0820.9,5.01,0.00,22.3,20.4,00.0,31.1,23.6,03.3,0000.0,0007.31,0003.92,0003.70
2023-02-23 14:24:00,,0821.0,5.01,0.00,22.3,20.9,00.0,31.1,23.7,03.3,0000.0,0007.36,0003.94,0003.70
2023-02-23 14:25:00,,0821.1,4.99,0.00,22.4,22.0,00.0,31.1,24.0,03.3,0000.0,0007.35,0003.95,0003.72
2023-02-23 14:26:00,,0821.1,5.01,0.00,22.5,22.9,00.0,31.1,24.2,03.4,0000.0,0007.30,0003.97,0003.73
2023-02-23 14:27:00,,0821.2,5.01,0.00,22.5,23.0,00.0,31.1,24.3,03.4,0000.0,0007.17,0003.96,0003.73
2023-02-23 14:28:00,,0821.1,5.01,0.00,22.5,22.2,00.0,31.1,24.1,03.4,0000.0,0007.13,0003.95,0003.74
2023-02-23 14:29:00,,0821.1,4.97,0.00,22.4,21.5,00.0,31.1,23.9,03.4,0000.0,0007.04,0003.94,0003.73
2023-02-23 14:30:00,,0821.2,5.04,0.00,22.4,20.9,00.0,31.1,23.8,03.4,0000.0,0006.84,0003.93,0003.73
2023-02-23 14:31:00,,0821.1,5.00,0.00,22.3,20.5,00.0,31.1,23.7,03.3,0000.0,0005.92,0003.93,0003.73
2023-02-23 14:32:00,,0821.2,5.03,0.00,22.3,21.1,00.0,31.1,23.8,03.3,0000.0,0005.88,0003.93,0003.73
2023-02-23 14:33:00,,0821.2,4.98,0.00,22.4,22.3,00.0,31.1,24.1,03.2,0000.0,0005.89,0003.93,0003.72
2023-02-23 14:34:00,,0821.2,5.04,0.00,22.5,23.2,00.0,31.1,24.3,03.2,0000.0,0005.94,0003.94,0003.72
2023-02-23 14:35:00,,0821.3,4.93,0.00,22.6,23.2,00.0,31.1,24.4,03.2,0000.0,0005.98,0003.95,0003.73
2023-02-23 14:36:00,,0821.4,5.01,0.00,22.6,22.4,00.0,31.2,24.2,03.2,0000.0,0005.93,0003.94,0003.72
2023-02-23 14:37:00,,0821.4,5.01,0.00,22.5,21.8,00.0,31.2,24.1,03.2,0000.0,0005.90,0003.92,0003.71
2023-02-23 14:38:00,,0821.4,4.99,0.00,22.4,21.3,00.0,31.2,23.9,03.2,0000.0,0005.90,0003.94,0003.72
2023-02-23 14:39:00,,0821.4,4.98,0.00,22.4,20.9,00.0,31.2,23.8,03.2,0000.0,0006.04,0003.97,0003.73
2023-02-23 14:40:00,,0821.4,5.01,0.00,22.3,20.5,00.0,31.1,23.7,03.2,0000.1,0006.09,0003.99,0003.75
2023-02-23 14:41:00,,0821.4,5.02,0.00,22.3,21.1,00.0,31.1,23.8,03.3,0000.0,0006.04,0004.00,0003.76
2023-02-23 14:42:00,,0821.4,4.98,0.00,22.4,22.2,00.0,31.1,24.1,03.3,0000.0,0006.04,0004.01,0003.77
2023-02-23 14:43:00,,0821.4,4.96,0.00,22.5,23.1,00.0,31.1,24.3,03.3,0000.0,0006.25,0004.07,0003.79
2023-02-23 14:44:00,,0821.4,5.00,0.00,22.6,23.3,00.0,31.2,24.4,03.3,0000.0,0006.37,0004.09,0003.80
2023-02-23 14:45:00,,0821.4,5.00,0.00,22.6,22.4,00.0,31.2,24.2,03.4,0000.0,0006.32,0004.08,0003.81
2023-02-23 14:46:00,,0821.4,4.98,0.00,22.5,21.8,00.0,31.2,24.1,03.4,0000.0,0006.30,0004.09,0003.82
2023-02-23 14:47:00,,0821.4,5.00,0.00,22.4,21.3,00.0,31.2,23.9,03.5,0000.0,0006.24,0004.10,0003.83
2023-02-23 14:48:00,,0821.4,4.98,0.00,22.4,20.8,00.0,31.2,23.8,03.6,0000.0,0006.29,0004.12,0003.85
2023-02-23 14:49:00,,0821.4,4.99,0.00,22.3,20.5,00.0,31.1,23.6,03.6,0000.0,0006.24,0004.11,0003.85
2023-02-23 14:50:00,,0821.4,5.02,0.00,22.3,21.0,00.0,31.1,23.8,03.7,0000.0,0006.22,0004.12,0003.87
2023-02-23 14:51:00,,0821.4,4.98,0.00,22.4,22.2,00.0,31.1,24.1,03.7,0000.0,0006.30,0004.13,0003.87
2023-02-23 14:52:00,,0821.5,4.93,0.00,22.5,23.2,00.0,31.1,24.3,03.7,0000.0,0006.49,0004.17,0003.89
2023-02-23 14:53:00,,0821.5,4.98,0.00,22.6,22.8,00.0,31.2,24.3,03.8,0000.0,0006.60,0004.21,0003.91
2023-02-23 14:54:00,,0821.5,5.00,0.00,22.5,22.0,00.0,31.2,24.1,03.8,0000.0,0006.59,0004.22,0003.94
2023-02-23 14:55:00,,0821.5,5.01,0.00,22.5,21.4,00.0,31.2,24.0,03.8,0000.0,0006.73,0004.27,0003.98
2023-02-23 14:56:00,,0821.5,4.99,0.00,22.4,20.9,00.0,31.2,23.8,03.8,0000.0,0006.77,0004.29,0004.00
2023-02-23 14:57:00,,0821.5,5.00,0.00,22.3,20.7,00.0,31.1,23.8,03.8,0000.0,0006.76,0004.30,0004.02
2023-02-23 14:58:00,,0821.4,5.04,0.00,22.4,21.9,00.0,31.1,24.0,03.8,0000.0,0006.77,0004.31,0004.04
2023-02-23 14:59:00,,0821.5,5.02,0.00,22.5,23.1,00.0,31.2,24.3,03.8,0000.0,0006.80,0004.33,0004.07
